Starlink 1167

operational
NORAD ID: 45071 Int'l Des: 2020-006 Owner: SPXS Country: US Constellation: starlink
LEOCIRCULARSTARLINK_TYPE

关于 Starlink 1167

正在加载描述...

实时位置

正在加载3D地球...

即将过境

高度历史

Altitude vs Time

uPlot chart will show altitude changes over time

两行轨道根数

1 45071U 20006AD 26035.75669696 -.00001005 00000-0 -22480-4 0 9993
2 45071 53.1613 50.6276 0001995 74.7094 285.4127 15.29356285331832
Epoch: Feb 4, 2026 • Age: 22 hours

当前状态

高度 496.5 km
速度 7.62 km/s
星下点 -50.72°S, 31.87°W
发射日期 Jan 29, 2020
运行时间 6 years
类型 internet

技术详情

分类 Payload
质量 260.00 kg
干质量 248.00 kg
总质量 260.00 kg
长度 0.20 m
直径 2.80 m
跨度 9.00 m
形状 Box + pan
制造商 SPXS
平台类型 Starlink
阶段状态 In Orbit
所有者/国家 SPXS/US

大型星座

Loading constellations...